Location: DARK SKY Beskydy - Park tmavé oblohy, www.darkskybeskydy.cz
(49.4926°N, 18.5016°E)
Time: 23:01:19
(UTC+02:00)

ACS3 Solar Sail - Pass Details

Date: 22 June 2024
Orbit: 992 x 1023 km, 97.4° (Epoch: 12 July)

Event Time Altitude Azimuth Distance (km) Brightness Sun altitude
Exits shadow 21:30:18 - 147° (SSE) 3,210 6.8 -4.9°
Reaches altitude 10° 21:31:31 10° 144° (SE) 2,761 6.5 -5.0°
Maximum altitude 21:37:32 54° 69° (ENE) 1,195 5.2 -5.7°
Drops below altitude 10° 21:43:34 10° 355° (N) 2,768 8.1 -6.3°
Sets 21:46:05 0° 351° (N) 3,720 9.0 -6.6°
